BANGABANDHUSAT-1

Last updated on Sat Aug 22 2026 00:02:59 GMT+0000 (Coordinated Universal Time)

1 43463U 18044A 26233.50583465 -.00000364 00000+0 00000+0 0 9991 2 43463 0.0087 145.9616 0002349 9.3009 115.7634 1.00272558 30367
UTC large
Height (km)
Speed (km/s)
/
Latitude / Longitude
Inclination (degrees)
Orbital Period (minutes)
Azimuth
Elevation
Range (km)
Doppler Factor

Next 0 passes for location: London (51.5072 / 0.1276)

No passes found over London.
BANGABANDHUSAT-1